Canadian, TX

5:32 AM CST on December 11, 2019 (GMT -0600)
Hemphill County

Weather History for KHHF - October, 2019

Change the Weather History Date:

Thursday, October 10, 2019

  Actual Average (KPPA) Record (KPPA)
Temperature  
Mean Temperature 54 °F -  
Max Temperature 67 °F 71 °F 90 °F (1965)
Min Temperature 38 °F 45 °F 31 °F (1970)
Degree Days  
Heating Degree Days 12    
Growing Degree Days 4 (Base 50)    
Moisture  
Dew Point 39 °F    
Average Humidity 62    
Maximum Humidity 84    
Minimum Humidity 45    
Precipitation  
Precipitation 0.00 in - - ()
Sea Level Pressure  
Sea Level Pressure 29.93 in    
Wind  
Wind Speed 12 mph (NNW)    
Max Wind Speed 25 mph    
Max Gust Speed 34 mph    
Visibility 10 miles    
Events      
Averages and records for this station are not official NWS values.
T = Trace of Precipitation, MM = Missing Value Source: NWS Daily Summary

Daily Weather History Graph

Daily Weather History Graph

Search for Another Location

Airport or City:

Astronomy

Oct. 10, 2019 Rise Set
Actual Time 7:43 AM CDT 7:12 PM CDT
Civil Twilight 7:18 AM CDT 7:38 PM CDT
Nautical Twilight 6:48 AM CDT 8:08 PM CDT
Astronomical Twilight 6:18 AM CDT 8:37 PM CDT
Moon 6:07 PM CDT (10/10) 4:38 AM CDT (10/10)
Length of Visible Light 12h 20m
Length of Day
11h 28m
Waxing Gibbous, 91% of the Moon is Illuminated
Oct 10
Waxing Gibbous
Oct 13
Full
Oct 21
Last Quarter
Oct 27
New
Nov 4
First Quarter

Hourly Weather History & Observations

Time (CDT) Temp. Windchill Dew Point Humidity Pressure Visibility Wind Dir Wind Speed Gust Speed Precip Events Conditions
12:15 AM 68.2 °F - 62.6 °F 82% 29.66 in 10.0 mi WSW 3.5 mph - N/A   Clear
12:35 AM 66.6 °F - 61.5 °F 84% 29.66 in 10.0 mi WSW 3.5 mph - N/A   Clear
12:55 AM 67.1 °F - 60.8 °F 80% 29.65 in 10.0 mi South 8.1 mph - N/A   Clear
1:15 AM 65.7 °F - 59.7 °F 81% 29.65 in 10.0 mi SSW 5.8 mph - N/A   Clear
1:35 AM 66.2 °F - 57.9 °F 75% 29.65 in 10.0 mi SSW 10.4 mph - N/A   Clear
1:55 AM 66.4 °F - 56.7 °F 71% 29.65 in 10.0 mi SSW 8.1 mph - N/A   Clear
2:15 AM 62.1 °F - 55.6 °F 79% 29.65 in 10.0 mi Calm Calm - N/A   Clear
2:35 AM 64.4 °F - 54.7 °F 71% 29.66 in 10.0 mi Calm Calm - N/A   Clear
2:55 AM 61.3 °F - 55.6 °F 81% 29.66 in 10.0 mi ESE 3.5 mph - N/A   Clear
3:15 AM 61.9 °F - 53.2 °F 73% 29.66 in 10.0 mi South 5.8 mph - N/A   Clear
3:35 AM 60.1 °F - 53.4 °F 79% 29.66 in 10.0 mi SSW 3.5 mph - N/A   Clear
3:55 AM 61.2 °F - 52.7 °F 74% 29.66 in 10.0 mi South 9.2 mph - N/A   Clear
4:15 AM 61.5 °F - 52.0 °F 71% 29.66 in 10.0 mi SSW 5.8 mph - N/A   Clear
4:35 AM 59.4 °F - 51.4 °F 75% 29.71 in 10.0 mi WNW 11.5 mph 17.3 mph N/A   Clear
4:55 AM 60.3 °F - 51.8 °F 74% 29.73 in 10.0 mi NNW 13.8 mph 20.7 mph N/A   Clear
5:15 AM 55.4 °F - 45.9 °F 70% 29.76 in 7.0 mi NNW 18.4 mph 24.2 mph N/A   Clear
5:35 AM 53.2 °F - 45.5 °F 75% 29.79 in 10.0 mi North 8.1 mph - N/A   Clear
5:55 AM 51.8 °F - 44.4 °F 76% 29.80 in 10.0 mi NW 9.2 mph - N/A   Clear
6:15 AM 50.0 °F - 43.2 °F 77% 29.83 in 10.0 mi NNW 13.8 mph 20.7 mph N/A   Clear
6:35 AM 49.1 °F - 42.8 °F 79% 29.84 in 10.0 mi NNW 13.8 mph 21.9 mph N/A   Clear
6:55 AM 47.7 °F - 41.5 °F 79% 29.86 in 10.0 mi NNW 11.5 mph 17.3 mph N/A   Scattered Clouds
7:15 AM 47.3 °F - 41.0 °F 79% 29.88 in 10.0 mi NNW 13.8 mph 28.8 mph N/A   Scattered Clouds
7:55 AM 46.8 °F - 40.1 °F 78% 29.91 in 10.0 mi North 15.0 mph 23.0 mph N/A   Overcast
8:15 AM 47.3 °F - 39.6 °F 74% 29.93 in 10.0 mi North 19.6 mph 24.2 mph N/A   Overcast
8:35 AM 47.3 °F - 39.2 °F 73% 29.94 in 10.0 mi North 15.0 mph 26.5 mph N/A   Overcast
8:55 AM 47.3 °F - 38.7 °F 72% 29.95 in 10.0 mi NNW 16.1 mph 25.3 mph N/A   Overcast
9:15 AM 47.3 °F - 38.3 °F 71% 29.95 in 10.0 mi North 19.6 mph 28.8 mph N/A   Overcast
9:35 AM 47.5 °F - 38.1 °F 70% 29.96 in 10.0 mi North 16.1 mph 21.9 mph N/A   Overcast
9:55 AM 47.7 °F - 38.1 °F 70% 29.96 in 10.0 mi North 18.4 mph 25.3 mph N/A   Overcast
10:15 AM 48.2 °F - 37.8 °F 67% 29.98 in 10.0 mi NNW 18.4 mph 25.3 mph N/A   Overcast
10:35 AM 48.2 °F - 37.4 °F 66% 29.99 in 10.0 mi North 16.1 mph 27.6 mph N/A   Overcast
10:55 AM 48.9 °F - 37.4 °F 64% 29.99 in 10.0 mi NNW 18.4 mph 25.3 mph N/A   Overcast
11:15 AM 49.6 °F - 37.2 °F 62% 29.99 in 10.0 mi NNW 13.8 mph 25.3 mph N/A   Overcast
11:35 AM 50.0 °F - 37.0 °F 61% 29.99 in 10.0 mi NNW 19.6 mph 25.3 mph N/A   Overcast
11:55 AM 50.5 °F - 37.0 °F 60% 29.99 in 10.0 mi NNW 23.0 mph - N/A   Overcast
12:15 PM 51.1 °F - 37.0 °F 59% 30.00 in 10.0 mi NNW 19.6 mph 26.5 mph N/A   Overcast
12:35 PM 52.3 °F - 36.9 °F 56% 29.99 in 10.0 mi NNW 20.7 mph 27.6 mph N/A   Overcast
12:55 PM 52.0 °F - 36.7 °F 56% 29.99 in 10.0 mi NNW 20.7 mph 26.5 mph N/A   Overcast
1:15 PM 52.9 °F - 36.7 °F 54% 29.99 in 10.0 mi North 21.9 mph 27.6 mph N/A   Overcast
1:35 PM 53.8 °F - 36.9 °F 53% 29.98 in 10.0 mi NNW 19.6 mph 29.9 mph N/A   Mostly Cloudy
1:55 PM 56.1 °F - 37.0 °F 49% 29.98 in 10.0 mi North 21.9 mph 27.6 mph N/A   Scattered Clouds
2:15 PM 54.7 °F - 36.5 °F 50% 29.97 in 10.0 mi North 21.9 mph 27.6 mph N/A   Mostly Cloudy
2:35 PM 55.0 °F - 36.5 °F 50% 29.97 in 10.0 mi NNW 16.1 mph 25.3 mph N/A   Scattered Clouds
2:55 PM 54.9 °F - 36.1 °F 49% 29.97 in 10.0 mi NNW 19.6 mph 26.5 mph N/A   Clear
3:15 PM 54.1 °F - 35.4 °F 49% 29.97 in 10.0 mi North 18.4 mph 25.3 mph N/A   Clear
3:35 PM 54.7 °F - 35.4 °F 48% 29.97 in 10.0 mi North 17.3 mph 29.9 mph N/A   Clear
3:55 PM 54.7 °F - 34.7 °F 47% 29.98 in 10.0 mi North 19.6 mph 26.5 mph N/A   Clear
4:15 PM 54.9 °F - 34.2 °F 46% 29.98 in 10.0 mi North 20.7 mph 27.6 mph N/A   Clear
4:35 PM 54.1 °F - 33.8 °F 46% 29.98 in 10.0 mi North 18.4 mph 28.8 mph N/A   Clear
4:55 PM 53.6 °F - 32.7 °F 45% 29.98 in 10.0 mi North 23.0 mph 31.1 mph N/A   Clear
5:15 PM 53.1 °F - 32.4 °F 45% 29.99 in 10.0 mi North 19.6 mph 25.3 mph N/A   Clear
5:35 PM 52.5 °F - 32.0 °F 46% 30.00 in 10.0 mi North 17.3 mph 28.8 mph N/A   Clear
5:55 PM 52.0 °F - 32.0 °F 47% 30.01 in 10.0 mi North 21.9 mph 27.6 mph N/A   Clear
6:15 PM 51.1 °F - 30.9 °F 46% 30.02 in 10.0 mi North 18.4 mph 26.5 mph N/A   Clear
6:35 PM 50.0 °F - 30.0 °F 46% 30.04 in 10.0 mi North 23.0 mph 26.5 mph N/A   Clear
6:55 PM 48.6 °F - 29.3 °F 47% 30.05 in 10.0 mi North 18.4 mph - N/A   Clear
7:15 PM 47.3 °F - 28.8 °F 49% 30.05 in 10.0 mi North 18.4 mph 26.5 mph N/A   Clear
7:35 PM 46.0 °F 38.5 °F 27.9 °F 49% 30.07 in 10.0 mi North 19.6 mph 27.6 mph N/A   Clear
7:55 PM 45.5 °F 38.6 °F 27.7 °F 50% 30.08 in 10.0 mi North 16.1 mph 21.9 mph N/A   Clear
8:15 PM 44.6 °F 36.4 °F 26.4 °F 49% 30.09 in 10.0 mi North 20.7 mph 28.8 mph N/A   Clear
8:35 PM 43.9 °F 35.7 °F 26.1 °F 50% 30.12 in 10.0 mi North 19.6 mph 31.1 mph N/A   Clear
8:55 PM 43.2 °F 35.0 °F 25.3 °F 49% 30.13 in 10.0 mi North 18.4 mph 26.5 mph N/A   Clear
9:15 PM 42.8 °F 34.3 °F 25.5 °F 51% 30.14 in 10.0 mi North 19.6 mph 27.6 mph N/A   Clear
9:35 PM 42.1 °F 33.6 °F 25.3 °F 52% 30.16 in 10.0 mi North 18.4 mph 27.6 mph N/A   Clear
9:55 PM 41.2 °F 30.9 °F 24.6 °F 52% 30.17 in 10.0 mi North 25.3 mph 31.1 mph N/A   Clear
10:15 PM 40.8 °F 32.0 °F 24.8 °F 53% 30.17 in 10.0 mi North 18.4 mph 26.5 mph N/A   Clear
10:35 PM 40.5 °F 31.5 °F 24.8 °F 54% 30.19 in 10.0 mi North 18.4 mph 23.0 mph N/A   Clear
10:55 PM 40.1 °F 30.5 °F 25.3 °F 56% 30.19 in 10.0 mi North 20.7 mph 27.6 mph N/A   Clear
11:15 PM 39.7 °F 30.0 °F 25.7 °F 57% 30.21 in 10.0 mi North 20.7 mph 26.5 mph N/A   Clear
11:35 PM 39.2 °F 29.3 °F 26.1 °F 59% 30.22 in 10.0 mi North 20.7 mph 28.8 mph N/A   Clear
11:55 PM 38.7 °F 29.1 °F 25.5 °F 59% 30.24 in 10.0 mi North 18.4 mph 34.5 mph N/A   Clear